| time (UTC) | temp F | wind direction | speed knots | gust knots | rain 1hr in | rain 24hr in | rain mn in | humidity % | barometer mb |
| 20260504214603 | 79 | 44 | 4.3 | 12.2 | 0.00 | 0.00 | 0.00 | 49 | 1015.2 |
| 20260504213055 | 81 | 90 | 4.3 | 11.3 | 0.00 | 0.00 | 0.00 | 48 | 1015.4 |
| 20260504211554 | 81 | 78 | 2.6 | 10.4 | 0.00 | 0.00 | 0.00 | 48 | 1015.3 |
| 20260504210059 | 82 | 103 | 4.3 | 9.6 | 0.00 | 0.00 | 0.00 | 45 | 1015.5 |
| 20260504204609 | 82 | 50 | 5.2 | 9.6 | 0.00 | 0.00 | 0.00 | 46 | 1015.5 |
| 20260504203127 | 83 | 74 | 4.3 | 12.2 | 0.00 | 0.00 | 0.00 | 46 | 1015.6 |
| 20260504201554 | 82 | 79 | 4.3 | 10.4 | 0.00 | 0.00 | 0.00 | 44 | 1015.6 |
| 20260504200057 | 82 | 5 | 5.2 | 11.3 | 0.00 | 0.00 | 0.00 | 44 | 1015.9 |
| 20260504194552 | 83 | 5 | 3.5 | 10.4 | 0.00 | 0.00 | 0.00 | 42 | 1016.1 |
| 20260504193057 | 82 | 50 | 3.5 | 10.4 | 0.00 | 0.00 | 0.00 | 43 | 1016.2 |
| 20260504191557 | 83 | 64 | 3.5 | 10.4 | 0.00 | 0.00 | 0.00 | 43 | 1016.4 |
| 20260504190056 | 83 | 157 | 5.2 | 10.4 | 0.00 | 0.00 | 0.00 | 42 | 1016.7 |
| 20260504184559 | 83 | 313 | 2.6 | 13.9 | 0.00 | 0.00 | 0.00 | 42 | 1016.9 |
| 20260504183104 | 83 | 71 | 5.2 | 11.3 | 0.00 | 0.00 | 0.00 | 42 | 1017.1 |
| 20260504181553 | 82 | 345 | 3.5 | 9.6 | 0.00 | 0.00 | 0.00 | 44 | 1017.3 |
| 20260504180116 | 82 | 75 | 3.5 | 9.6 | 0.00 | 0.00 | 0.00 | 45 | 1017.4 |
| 20260504174557 | 81 | 19 | 2.6 | 7.8 | 0.00 | 0.00 | 0.00 | 45 | 1017.4 |
| 20260504173109 | 81 | 96 | 2.6 | 13.9 | 0.00 | 0.00 | 0.00 | 44 | 1017.5 |
| 20260504171602 | 82 | 127 | 4.3 | 8.7 | 0.00 | 0.00 | 0.00 | 43 | 1017.6 |
| 20260504160103 | 79 | 329 | 4.3 | 9.6 | 0.00 | 0.00 | 0.00 | 40 | 1018.3 |
| 20260504081604 | 62 | 333 | 1.7 | 3.5 | 0.00 | 0.00 | 0.00 | 87 | 1017.3 |
| 20260504044554 | 66 | 352 | 0.9 | 2.6 | 0.00 | 0.00 | 0.00 | 79 | 1018.4 |
| 20260504043056 | 66 | 360 | 0.9 | 3.5 | 0.00 | 0.00 | 0.00 | 78 | 1018.6 |
| 20260504041554 | 66 | 348 | 0.0 | 2.6 | 0.00 | 0.00 | 0.00 | 77 | 1018.5 |
| 20260504040059 | 67 | 352 | 0.0 | 2.6 | 0.00 | 0.00 | 0.00 | 76 | 1018.6 |
| 20260504034557 | 67 | 336 | 1.7 | 4.3 | 0.00 | 0.00 | 0.00 | 75 | 1018.6 |
| 20260504033055 | 67 | 42 | 0.9 | 4.3 | 0.00 | 0.00 | 0.00 | 74 | 1018.6 |
| 20260504031551 | 67 | 34 | 1.7 | 4.3 | 0.00 | 0.00 | 0.00 | 74 | 1018.4 |
| 20260504030055 | 67 | 360 | 1.7 | 4.3 | 0.00 | 0.00 | 0.00 | 73 | 1018.5 |
| 20260504024555 | 67 | 28 | 3.5 | 7.8 | 0.00 | 0.00 | 0.00 | 72 | 1018.6 |
| 20260504023054 | 67 | 344 | 1.7 | 6.1 | 0.00 | 0.00 | 0.00 | 73 | 1018.6 |
| 20260504021554 | 68 | 26 | 0.9 | 7.8 | 0.00 | 0.00 | 0.00 | 72 | 1018.5 |
| 20260504020115 | 68 | 32 | 2.6 | 7.0 | 0.00 | 0.00 | 0.00 | 72 | 1018.3 |
| 20260504014558 | 68 | 19 | 1.7 | 6.1 | 0.00 | 0.00 | 0.00 | 71 | 1018.2 |
| 20260504013110 | 68 | 23 | 1.7 | 7.8 | 0.00 | 0.00 | 0.00 | 71 | 1018.0 |
| 20260504011554 | 68 | 50 | 1.7 | 7.8 | 0.00 | 0.00 | 0.00 | 70 | 1017.9 |
| 20260504010055 | 69 | 34 | 2.6 | 7.8 | 0.00 | 0.00 | 0.00 | 69 | 1017.9 |
| 20260504004555 | 69 | 53 | 2.6 | 7.0 | 0.00 | 0.00 | 0.00 | 68 | 1017.7 |
| 20260504003050 | 70 | 46 | 1.7 | 7.0 | 0.00 | 0.00 | 0.00 | 67 | 1017.7 |
| 20260504001554 | 71 | 17 | 2.6 | 8.7 | 0.00 | 0.00 | 0.00 | 65 | 1017.6 |
| 20260504000053 | 71 | 47 | 3.5 | 7.8 | 0.00 | 0.00 | 0.00 | 63 | 1017.5 |
| 20260503234555 | 72 | 55 | 3.5 | 9.6 | 0.00 | 0.00 | 0.00 | 61 | 1017.2 |
| 20260503233053 | 74 | 49 | 3.5 | 13.0 | 0.00 | 0.00 | 0.00 | 59 | 1017.2 |
| 20260503231555 | 74 | 54 | 3.5 | 8.7 | 0.00 | 0.00 | 0.00 | 55 | 1017.0 |
| 20260503230052 | 75 | 301 | 3.5 | 8.7 | 0.00 | 0.00 | 0.00 | 54 | 1017.1 |
| 20260503224559 | 76 | 352 | 4.3 | 10.4 | 0.00 | 0.00 | 0.00 | 53 | 1016.9 |
| 20260503223051 | 76 | 297 | 5.2 | 12.2 | 0.00 | 0.00 | 0.00 | 53 | 1017.0 |
| 20260503221600 | 77 | 360 | 5.2 | 10.4 | 0.00 | 0.00 | 0.00 | 53 | 1017.0 |
| 20260503220052 | 77 | 321 | 3.5 | 11.3 | 0.00 | 0.00 | 0.00 | 55 | 1017.0 |